Time,TemperatureF,DewpointF,PressureIn,WindDirection,WindDirectionDegrees,WindSpeedMPH,WindSpeedGustMPH,Humidity,HourlyPrecipIn,Conditions,Clouds,dailyrainin,SoftwareType,DateUTC
2013-03-10 00:01:00,33.0,32.0,29.80,SSE,165,0.0,0.0,98,0.01,,,0.28,,2013-03-10 06:01:00,
2013-03-10 00:11:00,33.0,32.0,29.80,SSE,165,0.0,0.0,98,0.01,,,0.28,,2013-03-10 06:11:00,
2013-03-10 00:22:00,33.0,32.0,29.80,SSE,166,0.0,0.0,98,0.00,,,0.28,,2013-03-10 06:22:00,
2013-03-10 00:32:00,33.0,32.0,29.81,SSE,166,0.0,0.0,98,0.00,,,0.28,,2013-03-10 06:32:00,
2013-03-10 00:42:00,33.0,32.0,29.81,SSE,166,0.0,0.0,98,0.00,,,0.28,,2013-03-10 06:42:00,
2013-03-10 00:52:00,33.0,32.0,29.80,SSE,166,0.0,0.0,98,0.00,,,0.28,,2013-03-10 06:52:00,
2013-03-10 01:01:00,33.0,32.0,29.80,SSE,166,0.0,0.0,98,0.00,,,0.28,,2013-03-10 07:01:00,
2013-03-10 01:11:00,33.0,32.0,29.80,SSE,166,0.0,0.0,98,0.00,,,0.28,,2013-03-10 07:11:00,
2013-03-10 01:21:00,33.0,32.0,29.81,SSE,165,0.0,1.0,98,0.00,,,0.28,,2013-03-10 07:21:00,
2013-03-10 01:31:00,33.0,32.0,29.81,SSE,165,0.0,0.0,98,0.00,,,0.28,,2013-03-10 07:31:00,
2013-03-10 01:42:00,33.0,32.0,29.82,SSE,166,0.0,0.0,98,0.00,,,0.28,,2013-03-10 07:42:00,
2013-03-10 01:52:00,33.0,32.0,29.82,SSE,166,0.0,0.0,98,0.00,,,0.28,,2013-03-10 07:52:00,
2013-03-10 03:01:00,34.0,34.0,29.82,SSE,165,0.0,0.0,98,0.00,,,0.28,,2013-03-10 08:01:00,
2013-03-10 03:11:00,34.0,34.0,29.82,SSE,165,0.0,0.0,98,0.00,,,0.28,,2013-03-10 08:11:00,
2013-03-10 03:21:00,34.0,34.0,29.81,SSE,166,0.0,0.0,98,0.00,,,0.28,,2013-03-10 08:21:00,
2013-03-10 03:31:00,34.0,34.0,29.81,SSE,165,0.0,1.0,98,0.00,,,0.28,,2013-03-10 08:31:00,
2013-03-10 03:42:00,34.0,34.0,29.81,SSE,165,0.0,1.0,98,0.00,,,0.28,,2013-03-10 08:42:00,
2013-03-10 03:52:00,34.0,34.0,29.81,SSE,166,0.0,2.0,98,0.01,,,0.30,,2013-03-10 08:52:00,
2013-03-10 04:01:00,34.0,34.0,29.82,West,275,0.0,3.0,98,0.01,,,0.30,,2013-03-10 09:01:00,
2013-03-10 04:11:00,34.0,34.0,29.82,West,275,0.0,3.0,98,0.01,,,0.30,,2013-03-10 09:11:00,
2013-03-10 04:21:00,34.0,34.0,29.82,WNW,288,0.0,2.0,98,0.01,,,0.30,,2013-03-10 09:21:00,
2013-03-10 04:31:00,34.0,34.0,29.83,WNW,288,0.0,2.0,98,0.01,,,0.30,,2013-03-10 09:31:00,
2013-03-10 04:41:00,34.0,34.0,29.83,WNW,288,0.0,2.0,98,0.01,,,0.30,,2013-03-10 09:41:00,
2013-03-10 04:52:00,34.0,34.0,29.83,West,262,0.0,2.0,98,0.00,,,0.30,,2013-03-10 09:52:00,
2013-03-10 05:01:00,34.0,33.0,29.84,WSW,252,0.0,2.0,97,0.00,,,0.30,,2013-03-10 10:01:00,
2013-03-10 05:11:00,34.0,33.0,29.84,WSW,252,0.0,2.0,97,0.00,,,0.30,,2013-03-10 10:11:00,
2013-03-10 05:21:00,34.0,33.0,29.84,WNW,298,0.0,2.0,97,0.00,,,0.30,,2013-03-10 10:21:00,
2013-03-10 05:32:00,34.0,33.0,29.84,NW,313,0.0,4.0,97,0.00,,,0.30,,2013-03-10 10:32:00,
2013-03-10 05:41:00,34.0,33.0,29.85,NE,55,0.0,2.0,97,0.00,,,0.30,,2013-03-10 10:41:00,
2013-03-10 05:52:00,34.0,33.0,29.85,NE,55,0.0,2.0,97,0.00,,,0.30,,2013-03-10 10:52:00,
2013-03-10 06:01:00,34.0,33.0,29.86,NE,55,0.0,2.0,96,0.00,,,0.30,,2013-03-10 11:01:00,
2013-03-10 06:12:00,34.0,33.0,29.88,NE,55,0.0,2.0,96,0.00,,,0.30,,2013-03-10 11:12:00,
2013-03-10 06:21:00,34.0,33.0,29.88,NE,55,0.0,2.0,96,0.00,,,0.30,,2013-03-10 11:21:00,
2013-03-10 06:31:00,34.0,33.0,29.88,NE,55,0.0,2.0,95,0.00,,,0.30,,2013-03-10 11:31:00,
2013-03-10 06:42:00,34.0,33.0,29.88,NE,55,0.0,2.0,95,0.00,,,0.30,,2013-03-10 11:42:00,
2013-03-10 06:52:00,34.0,32.0,29.87,NW,321,0.0,2.0,94,0.00,,,0.30,,2013-03-10 11:52:00,
2013-03-10 07:01:00,34.0,32.0,29.88,North,351,0.0,2.0,94,0.00,,,0.30,,2013-03-10 12:01:00,
2013-03-10 07:11:00,34.0,32.0,29.88,North,351,0.0,2.0,94,0.00,,,0.30,,2013-03-10 12:11:00,
2013-03-10 07:21:00,34.0,32.0,29.88,North,351,0.0,2.0,94,0.00,,,0.30,,2013-03-10 12:21:00,
2013-03-10 07:31:00,34.0,32.0,29.88,NE,36,0.0,4.0,94,0.00,,,0.30,,2013-03-10 12:31:00,
2013-03-10 07:42:00,34.0,32.0,29.88,NE,36,0.0,4.0,94,0.00,,,0.30,,2013-03-10 12:42:00,
2013-03-10 07:51:00,34.0,32.0,29.89,NNW,348,1.0,3.0,93,0.00,,,0.30,,2013-03-10 12:51:00,
2013-03-10 08:01:00,34.0,32.0,29.91,North,10,1.0,4.0,93,0.00,,,0.30,,2013-03-10 13:01:00,
2013-03-10 08:11:00,34.0,32.0,29.91,North,10,1.0,4.0,93,0.00,,,0.30,,2013-03-10 13:11:00,
2013-03-10 08:21:00,34.0,32.0,29.92,North,9,0.0,2.0,93,0.00,,,0.30,,2013-03-10 13:21:00,
2013-03-10 08:31:00,34.0,32.0,29.93,NW,323,0.0,3.0,92,0.00,,,0.30,,2013-03-10 13:31:00,
2013-03-10 08:41:00,34.0,32.0,29.93,NW,323,0.0,3.0,92,0.00,,,0.30,,2013-03-10 13:41:00,
2013-03-10 08:52:00,35.0,33.0,29.93,North,360,2.0,6.0,91,0.00,,,0.30,,2013-03-10 13:52:00,
2013-03-10 09:01:00,35.0,32.0,29.92,NNW,338,2.0,8.0,90,0.01,,,0.31,,2013-03-10 14:01:00,
2013-03-10 09:11:00,35.0,32.0,29.92,NNW,338,2.0,8.0,90,0.01,,,0.31,,2013-03-10 14:11:00,
2013-03-10 09:21:00,35.0,32.0,29.92,North,11,1.0,8.0,89,0.01,,,0.31,,2013-03-10 14:21:00,
2013-03-10 09:32:00,35.0,32.0,29.93,NNE,16,1.0,6.0,88,0.01,,,0.31,,2013-03-10 14:32:00,
2013-03-10 09:41:00,35.0,32.0,29.93,NNE,16,1.0,6.0,88,0.01,,,0.31,,2013-03-10 14:41:00,
2013-03-10 09:51:00,35.0,32.0,29.95,NNE,18,1.0,6.0,87,0.01,,,0.31,,2013-03-10 14:51:00,
2013-03-10 10:01:00,35.0,32.0,29.96,NE,35,2.0,7.0,87,0.00,,,0.31,,2013-03-10 15:01:00,
2013-03-10 10:11:00,35.0,32.0,29.96,NE,35,2.0,7.0,87,0.00,,,0.31,,2013-03-10 15:11:00,
2013-03-10 10:21:00,36.0,32.0,29.96,NNE,14,2.0,6.0,86,0.00,,,0.30,,2013-03-10 15:21:00,
2013-03-10 10:32:00,36.0,32.0,29.97,NNW,348,3.0,9.0,85,0.00,,,0.30,,2013-03-10 15:32:00,
2013-03-10 10:42:00,36.0,32.0,29.97,NNW,348,3.0,9.0,85,0.00,,,0.30,,2013-03-10 15:42:00,
2013-03-10 10:51:00,36.0,32.0,29.97,NNW,348,3.0,9.0,85,0.00,,,0.30,,2013-03-10 15:51:00,
2013-03-10 11:01:00,36.0,32.0,29.98,NNW,339,2.0,7.0,84,0.00,,,0.30,,2013-03-10 16:01:00,
2013-03-10 11:12:00,36.0,32.0,29.98,NNW,339,2.0,7.0,84,0.00,,,0.30,,2013-03-10 16:12:00,
2013-03-10 11:21:00,36.0,31.0,29.97,NNE,26,3.0,10.0,83,0.01,,,0.31,,2013-03-10 16:21:00,
2013-03-10 11:32:00,36.0,32.0,29.97,NNE,17,1.0,8.0,84,0.01,,,0.31,,2013-03-10 16:32:00,
2013-03-10 11:41:00,36.0,32.0,29.97,NNE,17,1.0,8.0,84,0.01,,,0.31,,2013-03-10 16:41:00,
2013-03-10 11:51:00,36.0,31.0,29.98,North,11,2.0,8.0,83,0.01,,,0.31,,2013-03-10 16:51:00,
2013-03-10 12:01:00,36.0,31.0,29.98,NNW,348,3.0,8.0,83,0.01,,,0.31,,2013-03-10 17:01:00,
2013-03-10 12:11:00,36.0,31.0,29.98,NNW,348,3.0,8.0,83,0.01,,,0.31,,2013-03-10 17:11:00,
2013-03-10 12:21:00,36.0,31.0,29.98,North,355,3.0,8.0,83,0.00,,,0.31,,2013-03-10 17:21:00,
2013-03-10 12:31:00,36.0,31.0,30.01,NNE,13,3.0,7.0,83,0.00,,,0.30,,2013-03-10 17:31:00,
2013-03-10 12:41:00,36.0,31.0,30.01,NNE,13,3.0,7.0,83,0.00,,,0.30,,2013-03-10 17:41:00,
2013-03-10 12:51:00,36.0,32.0,30.01,ENE,57,0.0,6.0,84,0.00,,,0.30,,2013-03-10 17:51:00,
2013-03-10 13:01:00,36.0,31.0,30.02,NE,44,1.0,5.0,83,0.00,,,0.30,,2013-03-10 18:01:00,
2013-03-10 13:11:00,36.0,31.0,30.02,NE,44,1.0,5.0,83,0.00,,,0.30,,2013-03-10 18:11:00,
2013-03-10 13:21:00,36.0,31.0,30.01,ENE,64,2.0,5.0,82,0.00,,,0.30,,2013-03-10 18:21:00,
2013-03-10 13:32:00,36.0,30.0,30.00,ENE,67,2.0,5.0,80,0.00,,,0.27,,2013-03-10 18:32:00,
2013-03-10 13:42:00,36.0,30.0,30.00,ENE,67,2.0,5.0,80,0.00,,,0.27,,2013-03-10 18:42:00,
2013-03-10 13:52:00,36.0,31.0,30.00,ENE,65,2.0,7.0,81,0.00,,,0.27,,2013-03-10 18:52:00,
2013-03-10 14:01:00,36.0,31.0,30.01,ESE,104,2.0,6.0,81,0.00,,,0.27,,2013-03-10 19:01:00,
2013-03-10 14:11:00,36.0,31.0,30.01,ESE,104,2.0,6.0,81,0.00,,,0.27,,2013-03-10 19:11:00,
2013-03-10 14:21:00,35.0,30.0,30.01,North,360,1.0,7.0,81,0.00,,,0.27,,2013-03-10 19:21:00,
2013-03-10 14:32:00,35.0,29.0,30.02,NE,55,3.0,5.0,80,0.00,,,0.25,,2013-03-10 19:32:00,
2013-03-10 14:42:00,35.0,29.0,30.02,NE,55,3.0,5.0,80,0.00,,,0.25,,2013-03-10 19:42:00,
2013-03-10 14:52:00,35.0,29.0,30.01,ENE,65,2.0,7.0,80,0.00,,,0.25,,2013-03-10 19:52:00,
2013-03-10 15:02:00,35.0,29.0,30.00,ENE,57,2.0,7.0,80,0.00,,,0.25,,2013-03-10 20:02:00,
2013-03-10 15:12:00,35.0,29.0,30.00,ENE,57,2.0,7.0,80,0.00,,,0.25,,2013-03-10 20:12:00,
2013-03-10 15:22:00,35.0,30.0,29.98,NE,46,2.0,7.0,81,0.00,,,0.25,,2013-03-10 20:22:00,
2013-03-10 15:32:00,35.0,29.0,29.98,ENE,68,3.0,8.0,80,0.00,,,0.25,,2013-03-10 20:32:00,
2013-03-10 15:42:00,35.0,29.0,29.98,ENE,68,3.0,8.0,80,0.00,,,0.25,,2013-03-10 20:42:00,
2013-03-10 15:52:00,35.0,30.0,29.98,East,79,1.0,7.0,81,0.00,,,0.25,,2013-03-10 20:52:00,
2013-03-10 16:02:00,35.0,30.0,29.98,NE,55,2.0,7.0,82,0.00,,,0.25,,2013-03-10 21:02:00,
2013-03-10 16:12:00,35.0,30.0,29.98,NE,55,2.0,7.0,82,0.00,,,0.25,,2013-03-10 21:12:00,
2013-03-10 16:22:00,35.0,30.0,30.00,NE,46,1.0,4.0,82,0.00,,,0.25,,2013-03-10 21:22:00,
2013-03-10 16:32:00,35.0,30.0,30.01,NE,34,2.0,5.0,81,0.00,,,0.23,,2013-03-10 21:32:00,
2013-03-10 16:42:00,35.0,30.0,30.01,NE,34,2.0,5.0,81,0.00,,,0.23,,2013-03-10 21:42:00,
2013-03-10 16:52:00,35.0,30.0,30.01,NE,56,1.0,7.0,81,0.00,,,0.23,,2013-03-10 21:52:00,
2013-03-10 17:02:00,34.0,29.0,30.02,NE,36,2.0,10.0,82,0.00,,,0.23,,2013-03-10 22:02:00,
2013-03-10 17:12:00,34.0,29.0,30.02,NE,36,2.0,10.0,82,0.00,,,0.23,,2013-03-10 22:12:00,
2013-03-10 17:22:00,34.0,29.0,30.01,NNE,19,1.0,6.0,83,0.00,,,0.23,,2013-03-10 22:22:00,
2013-03-10 17:32:00,34.0,29.0,30.01,ENE,65,2.0,9.0,83,0.00,,,0.18,,2013-03-10 22:32:00,
2013-03-10 17:43:00,34.0,29.0,30.01,ENE,65,2.0,9.0,83,0.00,,,0.18,,2013-03-10 22:43:00,
2013-03-10 17:52:00,34.0,30.0,30.00,NE,36,2.0,9.0,84,0.00,,,0.18,,2013-03-10 22:52:00,
2013-03-10 18:03:00,33.0,29.0,30.00,NNE,28,2.0,8.0,84,0.00,,,0.18,,2013-03-10 23:03:00,
2013-03-10 18:12:00,33.0,29.0,30.00,ENE,78,2.0,4.0,86,0.00,,,0.18,,2013-03-10 23:12:00,
2013-03-10 18:22:00,33.0,29.0,30.00,ENE,78,2.0,4.0,86,0.00,,,0.18,,2013-03-10 23:22:00,
2013-03-10 18:32:00,33.0,29.0,30.00,ENE,67,2.0,7.0,85,0.00,,,0.14,,2013-03-10 23:32:00,
2013-03-10 18:42:00,33.0,29.0,30.00,ENE,67,2.0,7.0,85,0.00,,,0.14,,2013-03-10 23:42:00,
2013-03-10 18:52:00,32.0,29.0,30.00,North,5,2.0,8.0,87,0.00,,,0.14,,2013-03-10 23:52:00,
2013-03-10 19:02:00,32.0,29.0,29.99,NE,47,2.0,6.0,87,0.00,,,0.14,,2013-03-11 00:02:00,
2013-03-10 19:12:00,32.0,29.0,29.99,NE,47,2.0,6.0,87,0.00,,,0.14,,2013-03-11 00:12:00,
2013-03-10 19:23:00,32.0,28.0,29.99,NNE,24,3.0,7.0,86,0.00,,,0.14,,2013-03-11 00:23:00,
2013-03-10 19:33:00,32.0,29.0,29.99,NE,40,2.0,7.0,87,0.00,,,0.09,,2013-03-11 00:33:00,
2013-03-10 19:43:00,32.0,29.0,29.99,NE,40,2.0,7.0,87,0.00,,,0.09,,2013-03-11 00:43:00,
2013-03-10 19:52:00,32.0,28.0,29.99,East,86,3.0,10.0,86,0.00,,,0.09,,2013-03-11 00:52:00,
2013-03-10 20:03:00,32.0,28.0,30.01,NNE,22,4.0,11.0,85,0.00,,,0.09,,2013-03-11 01:03:00,
2013-03-10 20:13:00,32.0,28.0,30.01,NNE,22,4.0,11.0,85,0.00,,,0.09,,2013-03-11 01:13:00,
2013-03-10 20:23:00,32.0,28.0,30.01,NE,34,2.0,8.0,85,0.00,,,0.09,,2013-03-11 01:23:00,
2013-03-10 20:32:00,32.0,28.0,30.00,NNW,344,2.0,4.0,85,0.00,,,0.08,,2013-03-11 01:32:00,
2013-03-10 20:42:00,32.0,28.0,30.00,NNW,344,2.0,4.0,85,0.00,,,0.08,,2013-03-11 01:42:00,
2013-03-10 20:52:00,32.0,28.0,29.99,NE,42,2.0,7.0,86,0.00,,,0.08,,2013-03-11 01:52:00,
2013-03-10 21:02:00,32.0,28.0,29.98,NNE,17,3.0,8.0,86,0.00,,,0.08,,2013-03-11 02:02:00,
2013-03-10 21:12:00,32.0,28.0,29.98,NNE,17,3.0,8.0,86,0.00,,,0.08,,2013-03-11 02:12:00,
2013-03-10 21:22:00,32.0,28.0,29.99,ENE,59,2.0,8.0,86,0.00,,,0.08,,2013-03-11 02:22:00,
2013-03-10 21:32:00,32.0,28.0,29.99,ENE,59,2.0,8.0,86,0.00,,,0.08,,2013-03-11 02:32:00,
2013-03-10 21:42:00,32.0,28.0,29.99,ENE,59,2.0,8.0,86,0.00,,,0.08,,2013-03-11 02:42:00,
2013-03-10 21:52:00,32.0,28.0,30.00,ENE,72,2.0,6.0,84,0.00,,,0.07,,2013-03-11 02:52:00,
2013-03-10 22:02:00,32.0,28.0,30.01,East,84,3.0,8.0,84,0.00,,,0.07,,2013-03-11 03:02:00,
2013-03-10 22:12:00,32.0,28.0,30.01,East,84,3.0,8.0,84,0.00,,,0.07,,2013-03-11 03:12:00,
2013-03-10 22:22:00,32.0,27.0,30.02,NE,49,2.0,8.0,83,0.00,,,0.07,,2013-03-11 03:22:00,
2013-03-10 22:32:00,32.0,27.0,30.01,NE,41,3.0,7.0,83,0.00,,,0.06,,2013-03-11 03:32:00,
2013-03-10 22:42:00,32.0,27.0,30.01,NE,41,3.0,7.0,83,0.00,,,0.06,,2013-03-11 03:42:00,
2013-03-10 22:52:00,32.0,27.0,30.01,ENE,73,2.0,10.0,83,0.00,,,0.06,,2013-03-11 03:52:00,
2013-03-10 23:02:00,31.0,27.0,30.00,ENE,64,4.0,13.0,84,0.00,,,0.06,,2013-03-11 04:02:00,
2013-03-10 23:12:00,31.0,27.0,30.00,ENE,64,4.0,13.0,84,0.00,,,0.06,,2013-03-11 04:12:00,
2013-03-10 23:22:00,31.0,27.0,29.99,North,5,3.0,13.0,84,0.00,,,0.06,,2013-03-11 04:22:00,
2013-03-10 23:32:00,31.0,26.0,29.98,ENE,68,3.0,10.0,82,0.00,,,0.06,,2013-03-11 04:32:00,
2013-03-10 23:42:00,31.0,26.0,29.98,ENE,68,3.0,10.0,82,0.00,,,0.06,,2013-03-11 04:42:00,
2013-03-10 23:52:00,31.0,26.0,29.97,NNE,16,3.0,10.0,81,0.00,,,0.06,,2013-03-11 04:52:00,